| time (UTC) | temp F | wind direction | speed MPH | gust MPH | rain 1hr in | rain 24hr in | rain mn in | humidity % | barometer mb |
| 20260505024551 | 77 | 0 | 0.0 | 10.0 | 0.00 | 0.00 | 0.00 | 78 | 1012.2 |
| 20260505024301 | 77 | 255 | 0.0 | 11.0 | 0.00 | 0.00 | 0.00 | 78 | 1011.9 |
| 20260505023801 | 77 | 283 | 1.0 | 8.0 | 0.00 | 0.00 | 0.00 | 78 | 1011.8 |
| 20260505023304 | 77 | 248 | 0.0 | 9.0 | 0.00 | 0.00 | 0.00 | 78 | 1011.7 |
| 20260505023054 | 77 | 0 | 0.0 | 9.0 | 0.00 | 0.00 | 0.00 | 77 | 1011.7 |
| 20260505022800 | 77 | 250 | 0.0 | 9.0 | 0.00 | 0.00 | 0.00 | 78 | 1011.6 |
| 20260505022301 | 78 | 302 | 0.0 | 12.0 | 0.00 | 0.00 | 0.00 | 78 | 1011.7 |
| 20260505021800 | 78 | 162 | 0.0 | 12.0 | 0.00 | 0.00 | 0.00 | 77 | 1011.7 |
| 20260505021552 | 77 | 0 | 1.0 | 11.0 | 0.00 | 0.00 | 0.00 | 77 | 1011.7 |
| 20260505021302 | 78 | 131 | 3.0 | 11.0 | 0.00 | 0.00 | 0.00 | 77 | 1011.4 |
| 20260505021027 | 78 | 252 | 0.0 | 10.0 | 0.00 | 0.00 | 0.00 | 78 | 1011.4 |
| 20260505020302 | 78 | 200 | 2.0 | 10.0 | 0.00 | 0.00 | 0.00 | 77 | 1011.4 |
| 20260505020045 | 77 | 0 | 0.0 | 9.0 | 0.00 | 0.00 | 0.00 | 77 | 1011.5 |
| 20260505020028 | 78 | 175 | 1.0 | 10.0 | 0.00 | 0.00 | 0.00 | 77 | 1011.2 |
| 20260505015525 | 78 | 187 | 1.0 | 5.0 | 0.00 | 0.00 | 0.00 | 77 | 1011.2 |
| 20260505014802 | 78 | 79 | 0.0 | 5.0 | 0.00 | 0.00 | 0.00 | 77 | 1011.1 |
| 20260505014605 | 77 | 0 | 0.0 | 7.0 | 0.00 | 0.00 | 0.00 | 76 | 1011.4 |
| 20260505014518 | 78 | 315 | 0.0 | 5.0 | 0.00 | 0.00 | 0.00 | 77 | 1011.0 |
| 20260505013802 | 78 | 210 | 2.0 | 9.0 | 0.00 | 0.00 | 0.00 | 77 | 1011.1 |
| 20260505013303 | 78 | 134 | 1.0 | 9.0 | 0.00 | 0.00 | 0.00 | 77 | 1011.1 |
| 20260505013050 | 77 | 0 | 0.0 | 5.0 | 0.00 | 0.00 | 0.00 | 76 | 1011.4 |
| 20260505012803 | 78 | 163 | 1.0 | 5.0 | 0.00 | 0.00 | 0.00 | 77 | 1011.0 |
| 20260505012304 | 78 | 15 | 1.0 | 5.0 | 0.00 | 0.00 | 0.00 | 76 | 1011.0 |
| 20260505011802 | 78 | 53 | 2.0 | 7.0 | 0.00 | 0.00 | 0.00 | 76 | 1011.0 |
| 20260505011548 | 78 | 93 | 0.0 | 11.0 | 0.00 | 0.00 | 0.00 | 75 | 1011.4 |
| 20260505011302 | 78 | 309 | 0.0 | 7.0 | 0.00 | 0.00 | 0.00 | 76 | 1011.0 |
| 20260505010802 | 78 | 333 | 1.0 | 8.0 | 0.00 | 0.00 | 0.00 | 75 | 1011.2 |
| 20260505010302 | 79 | 198 | 2.0 | 8.0 | 0.00 | 0.00 | 0.00 | 75 | 1011.2 |
| 20260505010049 | 78 | 211 | 1.0 | 9.0 | 0.00 | 0.00 | 0.00 | 74 | 1011.6 |
| 20260505005802 | 79 | 172 | 1.0 | 8.0 | 0.00 | 0.00 | 0.00 | 75 | 1011.2 |
| 20260505005303 | 79 | 237 | 2.0 | 8.0 | 0.00 | 0.00 | 0.00 | 74 | 1011.1 |
| 20260505004800 | 79 | 316 | 1.0 | 7.0 | 0.00 | 0.00 | 0.00 | 74 | 1011.1 |
| 20260505004552 | 79 | 0 | 1.0 | 10.0 | 0.00 | 0.00 | 0.00 | 73 | 1011.4 |
| 20260505004302 | 80 | 271 | 1.0 | 10.0 | 0.00 | 0.00 | 0.00 | 73 | 1011.2 |
| 20260505003801 | 80 | 266 | 2.0 | 10.0 | 0.00 | 0.00 | 0.00 | 73 | 1011.1 |
| 20260505003301 | 80 | 163 | 2.0 | 8.0 | 0.00 | 0.00 | 0.00 | 73 | 1011.1 |
| 20260505003049 | 80 | 92 | 1.0 | 8.0 | 0.00 | 0.00 | 0.00 | 72 | 1011.4 |
| 20260505002801 | 80 | 47 | 3.0 | 8.0 | 0.00 | 0.00 | 0.00 | 72 | 1011.1 |
| 20260505002303 | 81 | 195 | 2.0 | 10.0 | 0.00 | 0.00 | 0.00 | 72 | 1011.1 |
| 20260505002023 | 81 | 96 | 1.0 | 10.0 | 0.00 | 0.00 | 0.00 | 71 | 1011.1 |
| 20260505001611 | 81 | 82 | 2.0 | 10.0 | 0.00 | 0.00 | 0.00 | 70 | 1011.5 |
| 20260505001302 | 81 | 148 | 1.0 | 7.0 | 0.00 | 0.00 | 0.00 | 71 | 1011.2 |
| 20260505000802 | 81 | 316 | 2.0 | 9.0 | 0.00 | 0.00 | 0.00 | 70 | 1011.2 |
| 20260505000304 | 82 | 173 | 2.0 | 9.0 | 0.00 | 0.00 | 0.00 | 70 | 1011.3 |
| 20260505000115 | 81 | 0 | 1.0 | 8.0 | 0.00 | 0.00 | 0.00 | 69 | 1011.6 |
| 20260504235803 | 82 | 285 | 0.0 | 7.0 | 0.00 | 0.00 | 0.00 | 70 | 1011.3 |
| 20260504235520 | 82 | 180 | 1.0 | 7.0 | 0.00 | 0.00 | 0.00 | 69 | 1011.1 |
| 20260504234800 | 82 | 198 | 1.0 | 7.0 | 0.00 | 0.00 | 0.00 | 69 | 1011.3 |
| 20260504234606 | 82 | 56 | 1.0 | 9.0 | 0.00 | 0.00 | 0.00 | 68 | 1011.7 |
| 20260504234301 | 82 | 161 | 0.0 | 4.0 | 0.00 | 0.00 | 0.00 | 69 | 1011.3 |
| 20260504233802 | 82 | 248 | 0.0 | 5.0 | 0.00 | 0.00 | 0.00 | 68 | 1011.2 |
| 20260504233523 | 82 | 209 | 0.0 | 6.0 | 0.00 | 0.00 | 0.00 | 68 | 1011.2 |
| 20260504233059 | 82 | 0 | 1.0 | 8.0 | 0.00 | 0.00 | 0.00 | 68 | 1011.5 |
| 20260504232800 | 83 | 165 | 0.0 | 8.0 | 0.00 | 0.00 | 0.00 | 68 | 1011.2 |
| 20260504232303 | 83 | 236 | 2.0 | 10.0 | 0.00 | 0.00 | 0.00 | 68 | 1011.3 |
| 20260504231801 | 83 | 225 | 1.0 | 10.0 | 0.00 | 0.00 | 0.00 | 67 | 1011.3 |
| 20260504231550 | 82 | 0 | 1.0 | 8.0 | 0.00 | 0.00 | 0.00 | 67 | 1011.4 |
| 20260504231303 | 83 | 253 | 1.0 | 9.0 | 0.00 | 0.00 | 0.00 | 68 | 1011.2 |
| 20260504230803 | 83 | 162 | 0.0 | 9.0 | 0.00 | 0.00 | 0.00 | 68 | 1011.3 |
| 20260504230302 | 83 | 338 | 1.0 | 5.0 | 0.00 | 0.00 | 0.00 | 67 | 1011.3 |
| 20260504230051 | 83 | 0 | 0.0 | 7.0 | 0.00 | 0.00 | 0.00 | 66 | 1011.7 |
| 20260504225802 | 84 | 186 | 0.0 | 7.0 | 0.00 | 0.00 | 0.00 | 67 | 1011.4 |
| 20260504225322 | 84 | 259 | 0.0 | 5.0 | 0.00 | 0.00 | 0.00 | 67 | 1011.6 |
| 20260504225318 | 84 | 240 | 1.0 | 7.0 | 0.00 | 0.00 | 0.00 | 67 | 1011.6 |
| 20260504224555 | 83 | 0 | 1.0 | 6.0 | 0.00 | 0.00 | 0.00 | 66 | 1011.8 |
| 20260504224301 | 84 | 41 | 0.0 | 6.0 | 0.00 | 0.00 | 0.00 | 67 | 1011.6 |
| 20260504223801 | 83 | 23 | 1.0 | 8.0 | 0.00 | 0.00 | 0.00 | 67 | 1011.6 |
| 20260504223301 | 83 | 209 | 2.0 | 8.0 | 0.00 | 0.00 | 0.00 | 67 | 1011.7 |
| 20260504223051 | 83 | 0 | 0.0 | 7.0 | 0.00 | 0.00 | 0.00 | 67 | 1011.8 |
| 20260504222801 | 83 | 72 | 1.0 | 7.0 | 0.00 | 0.00 | 0.00 | 67 | 1011.6 |
| 20260504222301 | 83 | 202 | 1.0 | 7.0 | 0.00 | 0.00 | 0.00 | 68 | 1011.6 |
| 20260504221801 | 83 | 56 | 1.0 | 9.0 | 0.00 | 0.00 | 0.00 | 67 | 1011.4 |
| 20260504221549 | 83 | 0 | 0.0 | 9.0 | 0.00 | 0.00 | 0.00 | 67 | 1011.8 |
| 20260504221300 | 83 | 30 | 3.0 | 9.0 | 0.00 | 0.00 | 0.00 | 67 | 1011.2 |
| 20260504221033 | 83 | 176 | 1.0 | 7.0 | 0.00 | 0.00 | 0.00 | 67 | 1011.3 |
| 20260504220303 | 83 | 231 | 1.0 | 7.0 | 0.00 | 0.00 | 0.00 | 67 | 1011.7 |
| 20260504220058 | 83 | 127 | 2.0 | 11.0 | 0.00 | 0.00 | 0.00 | 67 | 1011.6 |
| 20260504220021 | 83 | 168 | 1.0 | 7.0 | 0.00 | 0.00 | 0.00 | 67 | 1011.7 |
| 20260504215304 | 83 | 194 | 1.0 | 7.0 | 0.00 | 0.00 | 0.00 | 67 | 1011.6 |
| 20260504214802 | 83 | 300 | 2.0 | 9.0 | 0.00 | 0.00 | 0.00 | 67 | 1011.7 |
| 20260504214548 | 83 | 51 | 2.0 | 12.0 | 0.00 | 0.00 | 0.00 | 67 | 1011.9 |
| 20260504214302 | 83 | 257 | 1.0 | 13.0 | 0.00 | 0.00 | 0.00 | 67 | 1011.7 |
| 20260504213802 | 83 | 139 | 1.0 | 13.0 | 0.00 | 0.00 | 0.00 | 66 | 1011.7 |
| 20260504213302 | 83 | 200 | 4.0 | 11.0 | 0.00 | 0.00 | 0.00 | 66 | 1011.7 |
| 20260504213111 | 83 | 264 | 3.0 | 10.0 | 0.00 | 0.00 | 0.00 | 66 | 1012.0 |
| 20260504212802 | 84 | 113 | 2.0 | 9.0 | 0.00 | 0.00 | 0.00 | 67 | 1011.8 |
| 20260504212529 | 84 | 4 | 2.0 | 10.0 | 0.00 | 0.00 | 0.00 | 66 | 1011.9 |
| 20260504211802 | 84 | 219 | 2.0 | 10.0 | 0.00 | 0.00 | 0.00 | 66 | 1011.9 |
| 20260504211559 | 83 | 93 | 3.0 | 10.0 | 0.00 | 0.00 | 0.00 | 65 | 1012.1 |
| 20260504211302 | 84 | 26 | 1.0 | 10.0 | 0.00 | 0.00 | 0.00 | 66 | 1011.9 |
| 20260504210802 | 83 | 261 | 3.0 | 10.0 | 0.00 | 0.00 | 0.00 | 66 | 1012.2 |
| 20260504210303 | 84 | 208 | 2.0 | 10.0 | 0.00 | 0.00 | 0.00 | 66 | 1012.1 |
| 20260504210050 | 83 | 238 | 1.0 | 7.0 | 0.00 | 0.00 | 0.00 | 65 | 1012.5 |
| 20260504205802 | 84 | 98 | 1.0 | 7.0 | 0.00 | 0.00 | 0.00 | 66 | 1012.3 |
| 20260504205303 | 84 | 283 | 0.0 | 9.0 | 0.00 | 0.00 | 0.00 | 66 | 1012.4 |
| 20260504204802 | 84 | 336 | 1.0 | 9.0 | 0.00 | 0.00 | 0.00 | 65 | 1012.4 |
| 20260504204557 | 83 | 0 | 1.0 | 9.0 | 0.00 | 0.00 | 0.00 | 66 | 1012.7 |
| 20260504204526 | 84 | 20 | 5.0 | 9.0 | 0.00 | 0.00 | 0.00 | 66 | 1012.6 |
| 20260504203802 | 84 | 274 | 1.0 | 7.0 | 0.00 | 0.00 | 0.00 | 65 | 1012.6 |
| 20260504203302 | 84 | 269 | 1.0 | 7.0 | 0.00 | 0.00 | 0.00 | 66 | 1012.6 |
| 20260504203102 | 83 | 0 | 1.0 | 7.0 | 0.00 | 0.00 | 0.00 | 65 | 1012.8 |
| 20260504202802 | 84 | 146 | 1.0 | 7.0 | 0.00 | 0.00 | 0.00 | 65 | 1012.7 |
| 20260504202749 | 84 | 262 | 1.0 | 9.0 | 0.00 | 0.00 | 0.00 | 65 | 1012.7 |
| 20260504202024 | 85 | 236 | 2.0 | 9.0 | 0.00 | 0.00 | 0.00 | 64 | 1013.0 |
| 20260504201551 | 84 | 103 | 1.0 | 9.0 | 0.00 | 0.00 | 0.00 | 63 | 1013.1 |
| 20260504201301 | 85 | 320 | 2.0 | 9.0 | 0.00 | 0.00 | 0.00 | 64 | 1013.1 |
| 20260504200803 | 85 | 353 | 1.0 | 7.0 | 0.00 | 0.00 | 0.00 | 64 | 1013.0 |
| 20260504200520 | 85 | 87 | 1.0 | 5.0 | 0.00 | 0.00 | 0.00 | 65 | 1013.1 |
| 20260504200051 | 84 | 0 | 1.0 | 7.0 | 0.00 | 0.00 | 0.00 | 65 | 1013.5 |
| 20260504195803 | 84 | 153 | 1.0 | 8.0 | 0.00 | 0.00 | 0.00 | 65 | 1013.3 |
| 20260504195304 | 83 | 310 | 2.0 | 8.0 | 0.00 | 0.00 | 0.00 | 66 | 1013.2 |
| 20260504194802 | 83 | 330 | 0.0 | 10.0 | 0.00 | 0.00 | 0.00 | 68 | 1013.2 |
| 20260504194559 | 82 | 0 | 0.0 | 10.0 | 0.00 | 0.00 | 0.00 | 67 | 1013.4 |
| 20260504194527 | 83 | 165 | 0.0 | 10.0 | 0.00 | 0.00 | 0.00 | 68 | 1013.3 |
| 20260504193803 | 83 | 172 | 0.0 | 6.0 | 0.00 | 0.00 | 0.00 | 69 | 1013.5 |
| 20260504193303 | 83 | 58 | 1.0 | 7.0 | 0.00 | 0.00 | 0.00 | 68 | 1013.5 |
| 20260504193056 | 82 | 0 | 0.0 | 7.0 | 0.00 | 0.00 | 0.00 | 67 | 1013.8 |
| 20260504192801 | 83 | 335 | 2.0 | 7.0 | 0.00 | 0.00 | 0.00 | 67 | 1013.4 |
| 20260504192301 | 83 | 65 | 0.0 | 4.0 | 0.00 | 0.00 | 0.00 | 67 | 1013.5 |
| 20260504192020 | 83 | 150 | 1.0 | 6.0 | 0.00 | 0.00 | 0.00 | 67 | 1013.5 |
| 20260504191547 | 82 | 0 | 0.0 | 9.0 | 0.00 | 0.00 | 0.00 | 67 | 1013.9 |
| 20260504191520 | 83 | 356 | 1.0 | 7.0 | 0.00 | 0.00 | 0.00 | 68 | 1013.7 |
| 20260504190803 | 82 | 19 | 1.0 | 9.0 | 0.00 | 0.00 | 0.00 | 67 | 1013.7 |
| 20260504190303 | 83 | 203 | 0.0 | 9.0 | 0.00 | 0.00 | 0.00 | 68 | 1013.7 |
| 20260504190114 | 82 | 294 | 0.0 | 8.0 | 0.00 | 0.00 | 0.00 | 67 | 1014.1 |
| 20260504185802 | 83 | 304 | 1.0 | 8.0 | 0.00 | 0.00 | 0.00 | 68 | 1013.8 |
| 20260504185524 | 83 | 289 | 1.0 | 8.0 | 0.00 | 0.00 | 0.00 | 67 | 1013.9 |
| 20260504184800 | 83 | 231 | 2.0 | 6.0 | 0.00 | 0.00 | 0.00 | 66 | 1013.8 |
| 20260504184559 | 82 | 77 | 0.0 | 6.0 | 0.00 | 0.00 | 0.00 | 66 | 1014.1 |
| 20260504184300 | 83 | 250 | 1.0 | 6.0 | 0.00 | 0.00 | 0.00 | 66 | 1013.9 |
| 20260504184019 | 83 | 251 | 2.0 | 10.0 | 0.00 | 0.00 | 0.00 | 67 | 1013.9 |
| 20260504183254 | 82 | 200 | 1.0 | 10.0 | 0.00 | 0.00 | 0.00 | 68 | 1014.0 |
| 20260504183049 | 82 | 0 | 0.0 | 11.0 | 0.00 | 0.00 | 0.00 | 67 | 1014.1 |
| 20260504182753 | 82 | 25 | 2.0 | 7.0 | 0.00 | 0.00 | 0.00 | 68 | 1013.9 |
| 20260504182249 | 82 | 72 | 2.0 | 12.0 | 0.00 | 0.00 | 0.00 | 68 | 1014.1 |
| 20260504181748 | 82 | 274 | 2.0 | 12.0 | 0.00 | 0.00 | 0.00 | 68 | 1014.2 |
| 20260504181550 | 82 | 77 | 0.0 | 10.0 | 0.00 | 0.00 | 0.00 | 68 | 1014.3 |
| 20260504181246 | 82 | 134 | 1.0 | 8.0 | 0.00 | 0.00 | 0.00 | 69 | 1014.2 |
| 20260504180745 | 82 | 264 | 1.0 | 12.0 | 0.00 | 0.00 | 0.00 | 68 | 1014.3 |
| 20260504180243 | 81 | 263 | 1.0 | 12.0 | 0.00 | 0.00 | 0.00 | 68 | 1014.3 |
| 20260504180049 | 81 | 0 | 1.0 | 11.0 | 0.00 | 0.00 | 0.00 | 68 | 1014.4 |
| 20260504175740 | 82 | 344 | 1.0 | 12.0 | 0.00 | 0.00 | 0.00 | 68 | 1014.3 |
| 20260504175241 | 82 | 338 | 2.0 | 7.0 | 0.00 | 0.00 | 0.00 | 68 | 1014.3 |
| 20260504174737 | 82 | 99 | 0.0 | 7.0 | 0.00 | 0.00 | 0.00 | 69 | 1014.4 |
| 20260504174551 | 81 | 0 | 0.0 | 9.0 | 0.00 | 0.00 | 0.00 | 69 | 1014.6 |
| 20260504174236 | 81 | 286 | 1.0 | 11.0 | 0.00 | 0.00 | 0.00 | 69 | 1014.5 |
| 20260504173736 | 81 | 311 | 1.0 | 11.0 | 0.00 | 0.00 | 0.00 | 69 | 1014.4 |
| 20260504173235 | 81 | 140 | 0.0 | 5.0 | 0.00 | 0.00 | 0.00 | 69 | 1014.4 |
| 20260504173054 | 81 | 0 | 0.0 | 8.0 | 0.00 | 0.00 | 0.00 | 69 | 1014.7 |
| 20260504172734 | 81 | 272 | 0.0 | 8.0 | 0.00 | 0.00 | 0.00 | 69 | 1014.7 |
| 20260504172234 | 81 | 219 | 1.0 | 8.0 | 0.00 | 0.00 | 0.00 | 69 | 1014.8 |
| 20260504171953 | 80 | 286 | 0.0 | 7.0 | 0.00 | 0.00 | 0.00 | 69 | 1015.0 |
| 20260504171551 | 80 | 0 | 0.0 | 12.0 | 0.00 | 0.00 | 0.00 | 69 | 1015.3 |
| 20260504171232 | 80 | 256 | 1.0 | 8.0 | 0.00 | 0.00 | 0.00 | 69 | 1015.1 |
| 20260504170730 | 81 | 293 | 1.0 | 8.0 | 0.00 | 0.00 | 0.00 | 68 | 1014.9 |
| 20260504170458 | 81 | 160 | 0.0 | 6.0 | 0.00 | 0.00 | 0.00 | 69 | 1015.0 |
| 20260504160202 | 80 | 240 | 1.0 | 11.0 | 0.00 | 0.00 | 0.00 | 69 | 1015.2 |
| 20260504150920 | 79 | 197 | 2.0 | 10.0 | 0.00 | 0.00 | 0.00 | 73 | 1015.5 |
| 20260504150204 | 78 | 320 | 1.0 | 11.0 | 0.00 | 0.00 | 0.00 | 73 | 1015.6 |
| 20260504140921 | 76 | 195 | 0.0 | 9.0 | 0.00 | 0.00 | 0.00 | 78 | 1015.7 |
| 20260504140202 | 76 | 230 | 0.0 | 3.0 | 0.00 | 0.00 | 0.00 | 78 | 1015.8 |
| 20260504140104 | 75 | 308 | 0.0 | 4.0 | 0.00 | 0.00 | 0.00 | 77 | 1016.0 |
| 20260504130702 | 71 | 321 | 0.0 | 0.0 | 0.00 | 0.00 | 0.00 | 85 | 1016.1 |
| 20260504130421 | 70 | 321 | 0.0 | 1.0 | 0.00 | 0.00 | 0.00 | 85 | 1015.9 |
| 20260504110701 | 67 | 211 | 0.0 | 0.0 | 0.00 | 0.00 | 0.00 | 86 | 1015.6 |
| 20260504110202 | 67 | 211 | 0.0 | 0.0 | 0.00 | 0.00 | 0.00 | 86 | 1015.6 |
| 20260504110111 | 67 | 0 | 0.0 | 0.0 | 0.00 | 0.00 | 0.00 | 86 | 1015.9 |
| 20260504100425 | 68 | 211 | 0.0 | 0.0 | 0.00 | 0.00 | 0.00 | 85 | 1015.7 |
| 20260504090115 | 68 | 0 | 0.0 | 3.0 | 0.00 | 0.00 | 0.00 | 82 | 1016.3 |
| 20260504081640 | 69 | 345 | 0.0 | 2.0 | 0.00 | 0.00 | 0.00 | 82 | 1016.6 |
| 20260504081554 | 68 | 213 | 0.0 | 0.0 | 0.00 | 0.00 | 0.00 | 81 | 1017.0 |
| 20260504081138 | 69 | 48 | 0.0 | 1.0 | 0.00 | 0.00 | 0.00 | 81 | 1016.8 |
| 20260504080857 | 69 | 48 | 0.0 | 1.0 | 0.00 | 0.00 | 0.00 | 81 | 1016.8 |
| 20260504080355 | 69 | 359 | 0.0 | 0.0 | 0.00 | 0.00 | 0.00 | 81 | 1016.9 |
| 20260504080119 | 69 | 359 | 0.0 | 0.0 | 0.00 | 0.00 | 0.00 | 81 | 1016.9 |
| 20260504070107 | 69 | 238 | 0.0 | 0.0 | 0.00 | 0.00 | 0.00 | 79 | 1017.6 |
| 20260504050602 | 71 | 72 | 0.0 | 4.0 | 0.00 | 0.00 | 0.00 | 74 | 1019.0 |
| 20260504045823 | 72 | 155 | 0.0 | 4.0 | 0.00 | 0.00 | 0.00 | 73 | 1019.3 |
| 20260504045101 | 72 | 155 | 0.0 | 4.0 | 0.00 | 0.00 | 0.00 | 73 | 1019.3 |
| 20260504044601 | 72 | 3 | 0.0 | 4.0 | 0.00 | 0.00 | 0.00 | 73 | 1019.4 |
| 20260504044102 | 72 | 139 | 0.0 | 3.0 | 0.00 | 0.00 | 0.00 | 73 | 1019.4 |
| 20260504043602 | 72 | 250 | 0.0 | 7.0 | 0.00 | 0.00 | 0.00 | 72 | 1019.5 |
| 20260504043103 | 72 | 65 | 2.0 | 7.0 | 0.00 | 0.00 | 0.00 | 72 | 1019.6 |
| 20260504043050 | 72 | 155 | 1.0 | 6.0 | 0.00 | 0.00 | 0.00 | 72 | 1019.8 |
| 20260504042819 | 72 | 122 | 1.0 | 5.0 | 0.00 | 0.00 | 0.00 | 72 | 1019.6 |
| 20260504042102 | 72 | 267 | 0.0 | 4.0 | 0.00 | 0.00 | 0.00 | 72 | 1019.5 |
| 20260504041824 | 72 | 150 | 1.0 | 4.0 | 0.00 | 0.00 | 0.00 | 72 | 1019.5 |
| 20260504041550 | 72 | 0 | 0.0 | 5.0 | 0.00 | 0.00 | 0.00 | 71 | 1019.7 |
| 20260504041103 | 72 | 150 | 0.0 | 3.0 | 0.00 | 0.00 | 0.00 | 71 | 1019.5 |
| 20260504040602 | 72 | 134 | 0.0 | 4.0 | 0.00 | 0.00 | 0.00 | 71 | 1019.5 |
| 20260504040107 | 73 | 335 | 1.0 | 4.0 | 0.00 | 0.00 | 0.00 | 71 | 1019.5 |
| 20260504040056 | 72 | 0 | 0.0 | 3.0 | 0.00 | 0.00 | 0.00 | 70 | 1019.8 |
| 20260504035601 | 73 | 32 | 0.0 | 6.0 | 0.00 | 0.00 | 0.00 | 71 | 1019.4 |
| 20260504035101 | 73 | 60 | 1.0 | 6.0 | 0.00 | 0.00 | 0.00 | 70 | 1019.6 |
| 20260504034601 | 73 | 31 | 1.0 | 6.0 | 0.00 | 0.00 | 0.00 | 70 | 1019.7 |
| 20260504034554 | 72 | 0 | 0.0 | 6.0 | 0.00 | 0.00 | 0.00 | 70 | 1019.9 |
| 20260504034103 | 73 | 191 | 0.0 | 6.0 | 0.00 | 0.00 | 0.00 | 70 | 1019.6 |
| 20260504033602 | 73 | 288 | 1.0 | 6.0 | 0.00 | 0.00 | 0.00 | 70 | 1019.7 |
| 20260504033321 | 73 | 53 | 0.0 | 4.0 | 0.00 | 0.00 | 0.00 | 69 | 1019.4 |
| 20260504033056 | 73 | 59 | 0.0 | 4.0 | 0.00 | 0.00 | 0.00 | 69 | 1019.6 |
| 20260504032817 | 73 | 86 | 0.0 | 4.0 | 0.00 | 0.00 | 0.00 | 69 | 1019.5 |
| 20260504032102 | 73 | 44 | 0.0 | 4.0 | 0.00 | 0.00 | 0.00 | 69 | 1019.5 |
| 20260504031828 | 73 | 180 | 0.0 | 4.0 | 0.00 | 0.00 | 0.00 | 68 | 1019.4 |
| 20260504031550 | 73 | 0 | 0.0 | 5.0 | 0.00 | 0.00 | 0.00 | 68 | 1019.7 |
| 20260504031103 | 73 | 259 | 0.0 | 6.0 | 0.00 | 0.00 | 0.00 | 68 | 1019.4 |
| 20260504030602 | 73 | 129 | 0.0 | 6.0 | 0.00 | 0.00 | 0.00 | 67 | 1019.3 |
| 20260504030107 | 74 | 226 | 1.0 | 6.0 | 0.00 | 0.00 | 0.00 | 67 | 1019.3 |
| 20260504030052 | 73 | 0 | 0.0 | 5.0 | 0.00 | 0.00 | 0.00 | 66 | 1019.6 |
| 20260504025600 | 74 | 20 | 2.0 | 8.0 | 0.00 | 0.00 | 0.00 | 67 | 1019.4 |
| 20260504025101 | 74 | 321 | 2.0 | 8.0 | 0.00 | 0.00 | 0.00 | 66 | 1019.3 |